Temp
14 13 13 13 13 13 13 13 12 12 13 13 12 12 12 12 12 12 12 11 11 11 11 11 11 11 11 10 11 11 11 11 11 11 11 11 11 11 11 11 11 11
14 14 13 13 13 13 13 13 13 13 13 13 13 12 12 12 12 12 12 12 11 11 11 11 11 11 11 11 10 11 11 11 11 11 11 11 11 11 11 11 11 11
14 14 14 13 13 13 13 13 13 13 13 13 13 12 12 12 12 12 12 12 12 12 12 12 12 11 11 11 11 11 11 11 11 11 11 11 11 11 11 11 11 11
14 14 14 14 13 13 13 13 13 13 13 13 13 13 12 12 12 12 12 12 12 12 12 12 12 12 11 11 11 11 11 11 11 11 11 11 11 11 11 11 11 11
14 14 14 14 14 13 13 13 13 13 13 13 13 13 13 12 12 12 12 12 12 12 12 12 12 12 12 11 11 11 11 11 11 11 11 12 12 12 12 12 11 11
14 14 14 14 14 13 13 13 13 13 13 13 13 13 13 13 13 13 13 12 12 12 12 12 12 12 12 12 12 11 11 11 11 11 11 12 12 12 12 12 12 12
15 14 14 14 14 14 14 14 13 13 13 13 13 13 13 13 13 13 13 13 13 12 12 12 12 12 12 12 12 12 12 12 11 11 11 12 12 12 12 12 12 12
15 15 14 14 14 14 14 14 14 14 13 13 13 13 13 13 13 13 13 13 13 13 13 13 13 13 12 13 13 13 12 12 12 12 12 12 12 12 12 12 12 12
15 15 15 14 14 14 14 14 14 14 14 13 13 13 13 13 13 13 13 13 13 13 13 13 13 13 13 13 13 13 13 13 12 12 12 12 12 12 12 12 12 12
15 15 15 15 14 14 14 14 14 14 14 14 13 13 13 13 13 13 13 13 13 13 13 13 13 13 13 13 13 13 13 13 13 13 13 12 12 12 12 12 12 12
16 15 15 15 15 14 14 14 14 14 14 14 14 14 14 13 13 13 13 13 13 13 13 13 13 13 13 13 13 13 13 13 13 13 13 13 13 12 12 12 12 12
16 16 16 15 15 15 15 14 14 14 14 14 14 14 14 14 14 14 14 14 14 14 14 14 14 14 13 13 13 13 13 13 13 13 13 13 13 13 13 13 13 12
16 16 16 16 16 15 15 15 15 14 14 14 14 14 14 14 14 14 14 14 14 14 14 14 14 14 14 14 14 13 13 13 13 13 13 13 13 13 13 13 13 13
17 16 16 16 16 16 15 15 15 15 15 15 15 14 14 14 14 14 14 14 14 14 14 14 14 14 14 14 14 14 14 13 13 13 13 13 13 13 13 13 13 13
16 16 16 16 16 16 16 15 15 15 15 15 15 15 15 14 14 14 14 14 14 14 14 14 14 14 14 14 14 14 14 14 13 13 13 13 13 13 14 14 14 14
16 16 16 16 16 16 16 15 15 15 15 15 15 15 15 15 14 14 14 15 14 14 14 14 14 15 15 14 14 14 14 14 14 14 13 13 13 13 14 14 14 14
16 16 16 16 16 16 16 15 15 15 15 15 15 15 15 15 14 14 14 15 15 15 15 15 15 15 15 15 15 14 14 14 14 14 14 14 14 14 14 14 14 14
17 16 16 16 16 16 16 15 15 15 15 15 15 15 15 15 15 15 15 15 15 15 16 16 16 16 16 15 15 15 15 14 14 14 14 14 14 14 14 14 14 14
17 17 17 16 16 16 16 15 15 15 15 15 15 15 15 15 15 15 15 15 15 16 16 16 16 16 16 16 16 15 15 15 15 15 15 15 15 15 15 15 14 14
18 17 17 17 16 16 16 16 16 15 15 15 15 15 15 15 15 16 16 15 15 16 16 16 16 16 16 16 16 16 15 15 15 15 15 15 15 15 15 15 15 15
18 18 18 17 17 16 16 16 16 16 16 15 15 16 16 16 16 16 16 16 16 16 16 17 17 17 17 17 16 16 16 15 15 15 15 15 15 15 15 16 15 15
18 18 18 18 17 17 17 16 16 16 16 16 16 16 16 16 16 16 16 17 17 16 16 17 17 17 17 17 17 16 16 16 15 15 15 15 15 15 15 15 15 15
18 18 18 18 18 17 17 17 17 16 16 16 16 16 16 16 16 16 16 16 17 17 17 17 17 17 17 17 17 16 16 16 16 15 15 15 15 15 15 15 15 15
19 18 18 18 18 17 17 17 17 17 16 16 16 16 16 16 17 17 17 17 17 17 17 17 17 16 16 16 17 17 16 16 16 15 15 15 15 15 15 15 15 15
19 19 18 18 18 18 17 17 17 17 17 17 16 16 16 16 17 17 17 17 17 17 17 17 17 16 16 16 17 16 16 16 16 16 16 16 16 15 15 15 15 15
19 19 19 19 18 18 17 17 17 17 17 17 17 17 17 17 17 17 17 17 17 17 17 17 17 17 17 17 16 16 16 16 16 16 17 16 16 15 15 15 15 15
Height
3183 3185 3187 3189 3190 3192 3194 3195 3197 3198 3200 3201 3203 3204 3205 3206 3207 3208 3209 3210 3212 3213 3214 3215 3215 3216 3217 3218 3219 3219 3220 3221 3222 3223 3223 3224 3225 3225 3226 3226 3226 3227
3181 3183 3185 3187 3188 3190 3192 3194 3195 3197 3198 3200 3201 3203 3204 3204 3205 3206 3208 3209 3210 3211 3212 3213 3214 3215 3215 3216 3218 3218 3219 3220 3221 3221 3222 3223 3224 3224 3225 3225 3226 3226
3179 3181 3183 3185 3187 3188 3190 3192 3193 3195 3197 3198 3200 3201 3202 3203 3204 3205 3206 3207 3209 3210 3211 3211 3212 3213 3214 3215 3216 3217 3218 3219 3219 3220 3221 3222 3223 3223 3224 3224 3225 3225
3177 3179 3181 3183 3185 3187 3188 3190 3191 3193 3195 3196 3198 3199 3201 3202 3203 3204 3204 3206 3207 3208 3209 3210 3211 3212 3213 3213 3214 3215 3216 3217 3218 3218 3220 3221 3222 3222 3223 3223 3224 3225
3175 3177 3179 3181 3183 3185 3186 3187 3189 3191 3193 3195 3196 3198 3199 3200 3201 3203 3204 3204 3206 3207 3208 3209 3209 3210 3211 3212 3212 3213 3214 3215 3216 3217 3218 3219 3220 3221 3222 3222 3223 3223
3173 3175 3177 3179 3181 3183 3184 3185 3187 3189 3191 3193 3194 3196 3197 3199 3200 3201 3202 3204 3205 3206 3207 3208 3208 3209 3210 3210 3211 3211 3212 3213 3214 3215 3216 3217 3219 3220 3220 3221 3222 3222
3171 3173 3175 3177 3179 3180 3182 3183 3185 3187 3189 3191 3192 3194 3196 3197 3198 3199 3201 3202 3203 3204 3205 3206 3207 3208 3208 3209 3210 3210 3211 3211 3212 3213 3214 3215 3217 3218 3219 3219 3220 3221
3168 3171 3173 3174 3176 3178 3179 3181 3183 3185 3187 3189 3190 3192 3194 3195 3197 3198 3199 3200 3202 3203 3204 3205 3206 3207 3207 3208 3208 3209 3209 3210 3210 3211 3212 3213 3214 3216 3217 3218 3218 3219
3166 3168 3170 3172 3173 3175 3177 3179 3181 3183 3185 3186 3188 3190 3192 3193 3195 3196 3197 3198 3199 3201 3202 3203 3204 3205 3206 3206 3207 3208 3208 3208 3208 3209 3210 3211 3212 3213 3215 3216 3216 3217
3163 3165 3167 3169 3171 3173 3175 3177 3179 3181 3183 3185 3186 3188 3190 3191 3193 3194 3195 3196 3197 3198 3200 3201 3202 3203 3204 3204 3205 3206 3207 3207 3207 3207 3207 3208 3210 3211 3212 3213 3214 3214
3160 3162 3164 3166 3168 3170 3173 3175 3177 3179 3181 3182 3184 3186 3187 3189 3190 3192 3193 3194 3195 3196 3198 3199 3200 3201 3201 3202 3203 3204 3205 3205 3205 3205 3205 3206 3207 3208 3209 3210 3211 3212
3158 3159 3161 3164 3166 3168 3170 3173 3175 3176 3178 3180 3182 3184 3185 3186 3188 3189 3190 3191 3193 3195 3195 3196 3198 3198 3199 3200 3201 3202 3202 3203 3204 3204 3204 3204 3205 3206 3206 3207 3208 3209
3155 3157 3159 3162 3164 3166 3168 3170 3172 3174 3175 3177 3179 3181 3183 3184 3185 3187 3188 3189 3191 3192 3193 3194 3195 3195 3196 3197 3198 3199 3200 3200 3201 3202 3202 3202 3202 3203 3204 3204 3205 3206
3154 3156 3158 3160 3162 3164 3166 3168 3170 3171 3173 3175 3176 3178 3180 3181 3182 3184 3186 3187 3188 3189 3191 3191 3192 3192 3193 3193 3195 3196 3197 3197 3198 3199 3200 3200 3200 3200 3201 3201 3202 3203
3153 3155 3156 3158 3160 3162 3164 3165 3167 3169 3171 3172 3174 3175 3178 3179 3180 3181 3183 3184 3185 3186 3187 3188 3188 3189 3189 3190 3191 3193 3194 3194 3195 3196 3197 3197 3197 3197 3198 3198 3199 3199
3151 3153 3155 3156 3158 3159 3161 3163 3165 3167 3169 3170 3171 3173 3175 3177 3178 3179 3179 3181 3182 3183 3184 3185 3185 3186 3186 3188 3189 3190 3191 3192 3192 3192 3193 3194 3194 3194 3194 3194 3195 3195
3148 3150 3152 3154 3156 3158 3159 3161 3163 3165 3166 3167 3169 3170 3171 3173 3175 3177 3177 3177 3179 3181 3181 3182 3182 3183 3184 3185 3186 3187 3188 3189 3189 3189 3189 3189 3190 3190 3190 3191 3191 3191
3145 3148 3150 3151 3154 3155 3157 3159 3161 3162 3164 3165 3166 3167 3169 3170 3172 3174 3175 3175 3176 3177 3178 3179 3180 3181 3182 3182 3183 3184 3185 3185 3186 3186 3185 3185 3185 3186 3186 3187 3187 3187
3141 3144 3147 3149 3151 3153 3155 3157 3158 3160 3161 3162 3164 3165 3166 3167 3169 3170 3172 3173 3173 3174 3175 3176 3177 3178 3179 3180 3180 3181 3182 3183 3182 3182 3182 3182 3181 3182 3182 3183 3183 3183
3137 3140 3143 3146 3148 3151 3153 3154 3155 3157 3158 3160 3161 3163 3164 3165 3166 3167 3169 3170 3171 3171 3172 3173 3174 3175 3176 3176 3177 3178 3179 3179 3180 3179 3179 3178 3178 3178 3178 3179 3179 3179
3134 3136 3139 3142 3145 3147 3149 3150 3152 3154 3156 3157 3158 3159 3160 3162 3163 3164 3165 3166 3168 3169 3169 3169 3170 3171 3172 3173 3174 3174 3175 3176 3176 3176 3175 3175 3175 3175 3175 3175 3176 3175
3132 3134 3136 3138 3141 3143 3145 3147 3149 3150 3152 3154 3155 3156 3157 3159 3160 3161 3162 3163 3164 3165 3166 3166 3167 3168 3168 3169 3170 3170 3171 3172 3172 3172 3172 3172 3171 3171 3171 3171 3172 3172
3130 3132 3133 3135 3137 3139 3141 3143 3145 3147 3149 3151 3152 3153 3154 3155 3156 3157 3158 3159 3160 3161 3162 3163 3164 3165 3165 3165 3166 3166 3166 3167 3167 3168 3168 3168 3168 3167 3167 3167 3167 3168
3128 3129 3131 3133 3134 3136 3138 3140 3142 3144 3145 3147 3148 3150 3151 3152 3153 3154 3155 3156 3157 3157 3158 3159 3160 3161 3162 3162 3162 3162 3162 3162 3163 3163 3164 3164 3164 3164 3164 3164 3163 3164
3125 3127 3129 3130 3132 3133 3135 3137 3138 3140 3142 3143 3144 3146 3147 3148 3149 3150 3151 3152 3153 3154 3155 3156 3156 3157 3158 3158 3158 3158 3158 3158 3158 3158 3158 3159 3159 3159 3159 3160 3160 3160
3122 3124 3125 3127 3129 3131 3132 3134 3135 3137 3138 3139 3140 3142 3143 3144 3145 3146 3147 3147 3149 3150 3151 3152 3152 3153 3154 3155 3155 3155 3154 3154 3154 3153 3153 3154 3155 3155 3155 3155 3155 3155
Wind_Speed
23 23 23 23 23 22 22 20 19 19 17 15 13 11 10 10 11 13 13 13 13 13 13 14 15 15 15 15 15 15 13 12 11 11 10 9 8 8 7 7 6 4
24 24 24 23 23 23 22 22 21 20 18 16 13 12 11 11 11 12 12 12 13 14 14 14 14 15 16 16 16 16 14 13 12 12 11 10 9 9 9 8 7 6
24 24 24 23 22 22 22 22 22 22 20 17 15 14 13 12 11 11 11 11 12 14 15 15 14 15 17 17 17 17 16 14 13 13 13 12 11 10 10 10 9 8
25 24 23 22 22 21 22 23 23 23 22 20 17 15 14 13 13 13 12 11 10 11 14 15 15 15 17 18 18 18 17 16 15 15 14 13 13 12 12 11 11 10
25 24 23 22 22 22 23 24 24 25 23 21 19 18 16 15 15 14 14 13 11 10 11 13 15 15 16 18 19 19 19 17 17 17 16 14 14 14 13 13 12 11
26 25 24 23 23 23 24 24 25 25 24 23 21 20 18 18 17 15 14 15 14 13 11 12 13 14 15 17 19 19 20 19 19 19 18 16 15 16 16 15 14 13
27 27 26 25 24 24 24 25 26 26 25 24 23 21 20 20 19 18 16 15 16 16 15 13 13 14 14 15 16 18 19 20 20 21 20 19 17 16 17 17 16 15
28 27 27 26 25 25 25 26 27 27 26 25 25 23 22 21 21 21 20 18 17 17 18 17 15 14 15 15 14 16 18 19 20 22 22 21 20 18 17 18 18 18
28 28 28 28 27 27 26 26 27 28 28 27 26 24 23 23 22 23 23 22 20 18 19 19 18 16 16 16 14 14 16 18 20 22 23 22 22 20 19 19 20 20
29 29 29 29 29 27 27 26 27 28 28 28 27 26 25 24 24 24 24 24 23 21 20 20 20 19 18 18 17 16 15 17 19 22 23 23 23 22 21 20 21 22
29 30 30 30 29 28 27 26 26 27 28 28 28 27 26 25 25 26 25 25 24 24 22 21 21 22 22 21 20 19 18 18 19 21 23 24 24 25 24 23 22 23
28 30 30 30 30 29 28 27 27 27 27 27 28 27 27 27 26 27 27 26 26 25 25 24 24 24 25 24 23 23 22 20 20 21 23 24 24 25 27 27 25 25
26 28 29 28 29 29 28 28 28 27 27 27 27 27 27 28 27 27 28 28 28 27 27 27 27 27 27 27 26 25 25 24 23 23 23 24 25 25 27 28 29 28
24 25 26 26 26 27 28 28 27 27 27 27 27 27 26 27 28 27 28 28 29 29 28 28 29 30 30 30 29 27 27 27 26 25 24 25 26 26 27 28 30 31
25 24 25 25 25 26 26 26 26 25 26 26 26 26 25 26 27 28 28 28 29 29 29 29 31 32 31 31 30 29 28 28 28 28 26 26 27 27 27 28 29 31
28 26 26 25 25 26 25 25 25 24 25 25 26 25 25 25 26 27 28 28 28 29 29 29 30 31 30 31 30 30 29 28 30 30 29 29 29 29 29 29 29 31
32 30 29 28 27 26 26 25 24 24 24 25 25 25 24 24 24 25 26 27 26 26 27 27 27 28 28 28 28 29 29 29 30 31 31 31 31 31 31 31 31 31
33 33 32 31 29 28 28 26 26 26 26 26 26 26 26 25 24 24 24 26 26 25 24 25 24 25 25 25 25 25 27 28 29 30 31 31 31 31 31 31 32 32
32 34 34 34 32 30 29 29 29 29 28 28 27 28 28 28 27 26 26 26 27 26 25 24 24 24 24 25 25 24 25 26 27 28 29 30 30 31 31 31 32 33
27 30 33 35 34 33 32 31 31 31 30 30 30 30 31 30 29 29 28 28 28 28 27 26 25 24 24 24 25 25 25 26 27 28 29 30 30 30 31 30 31 32
21 24 29 33 35 35 34 33 33 32 32 32 32 32 31 31 30 30 29 29 29 29 29 28 27 26 26 25 25 26 27 27 27 28 29 30 31 32 31 31 31 32
19 20 23 28 32 35 35 35 34 34 34 33 34 34 33 32 32 31 30 30 30 30 31 30 29 28 28 27 27 27 28 28 28 29 30 31 32 33 33 33 32 33
19 20 21 23 27 30 33 34 34 35 35 34 35 35 34 34 33 33 32 32 32 32 31 31 31 30 30 29 29 29 30 30 30 30 31 31 32 33 34 34 34 35
19 21 21 22 24 27 30 32 34 35 35 35 36 36 35 35 34 34 34 34 34 33 32 32 32 32 32 31 31 31 32 32 32 33 33 33 33 34 34 35 35 36
21 22 22 23 24 26 28 29 32 33 34 35 36 36 36 37 36 35 34 34 35 34 34 33 33 34 34 33 33 34 34 34 35 36 35 34 34 35 36 35 35 36
19 22 24 24 24 25 27 29 31 32 33 34 35 35 36 37 37 36 35 35 36 36 36 35 35 35 36 35 36 36 37 37 38 37 35 35 36 38 38 37 37 38
Wind_Direction
216 219 223 225 227 228 229 230 230 231 232 231 228 228 229 226 226 233 237 235 239 243 244 245 249 253 254 254 259 263 264 262 257 253 251 255 260 250 235 229 227 223
217 220 224 226 228 229 230 231 230 230 230 227 225 221 222 228 231 235 238 234 236 242 246 248 249 253 257 258 259 262 265 265 261 256 251 252 254 249 238 234 236 231
220 222 225 227 230 230 231 232 231 230 228 224 223 220 218 226 234 240 243 236 233 239 246 253 255 256 260 262 262 262 263 264 264 261 255 251 252 250 243 239 241 239
220 222 225 227 230 231 231 231 230 228 227 224 223 224 223 225 231 239 247 246 240 239 244 252 257 258 260 263 265 263 263 263 263 263 260 254 253 253 249 244 243 243
220 223 226 227 228 230 230 230 229 228 228 226 225 227 229 231 233 236 244 251 253 251 248 252 257 259 259 262 265 264 264 263 262 263 262 258 255 256 254 249 244 245
221 223 226 228 228 230 231 230 229 229 228 227 226 227 231 237 241 241 242 250 256 260 259 258 261 264 262 262 264 264 264 263 262 262 263 260 257 256 257 254 247 246
219 222 224 227 228 229 231 230 228 229 229 228 227 228 231 237 244 248 247 248 253 259 264 264 266 269 270 268 267 266 266 266 263 261 263 263 259 254 254 257 253 248
218 219 222 224 226 227 229 229 228 229 229 229 228 229 231 235 241 248 252 251 251 256 263 268 270 271 274 277 277 273 271 269 266 263 263 264 262 256 253 256 257 252
216 217 218 220 222 224 226 227 227 228 229 230 230 230 232 236 240 245 251 254 255 256 259 266 271 273 275 278 282 281 278 275 271 267 265 264 263 261 255 253 256 255
216 216 217 218 220 222 223 225 227 228 229 230 231 232 233 237 242 245 248 252 255 258 259 263 269 273 275 277 279 282 281 280 276 272 269 266 264 263 259 254 254 255
215 215 216 217 219 221 222 223 226 228 229 229 231 233 235 237 241 245 248 250 254 258 262 264 268 272 274 276 278 279 280 279 278 277 274 271 267 264 263 259 255 254
214 215 217 217 217 220 222 223 226 228 229 230 230 233 236 238 241 244 249 253 255 258 263 266 268 270 273 275 276 277 277 277 277 278 278 277 272 266 264 263 260 257
212 214 217 218 217 219 222 223 225 228 229 231 232 233 236 240 242 245 248 253 257 259 262 266 269 270 271 273 273 274 275 275 275 276 278 280 278 273 269 266 264 261
214 213 215 217 218 219 222 224 225 227 230 233 234 234 236 240 245 247 248 252 257 259 262 264 267 269 270 271 272 272 273 274 274 274 275 277 279 279 275 272 269 267
220 217 216 216 217 217 220 223 224 226 230 235 237 238 238 240 245 250 252 253 255 259 261 263 265 267 269 270 272 273 273 274 274 274 274 274 275 276 276 275 272 270
224 223 220 217 218 217 217 220 223 226 230 235 240 243 242 241 244 249 254 255 256 258 260 261 263 265 267 268 270 272 273 273 273 274 274 273 272 272 272 272 272 271
228 227 224 221 221 221 220 219 222 227 231 235 240 244 246 246 244 245 251 255 256 257 258 260 262 264 267 268 268 270 271 270 270 272 273 273 271 270 269 269 269 269
234 230 228 226 224 224 224 224 224 227 232 236 240 243 247 250 249 247 249 254 258 259 258 259 262 265 267 269 268 268 268 269 269 269 270 272 273 271 269 268 267 267
241 235 232 231 228 226 227 229 229 230 232 236 240 244 248 251 252 252 253 255 259 262 263 263 265 267 268 270 272 271 269 268 269 269 269 271 274 274 273 270 268 267
249 242 237 234 233 231 230 231 232 233 235 238 241 245 247 250 252 255 257 258 260 264 268 270 270 270 271 272 273 274 273 271 271 272 272 272 273 274 275 274 272 269
249 246 241 237 235 234 233 233 235 236 237 240 242 245 248 250 253 256 258 260 261 263 267 271 273 275 276 277 276 276 275 274 272 272 273 274 274 275 275 276 276 274
243 241 239 237 236 235 235 235 236 237 239 241 242 245 248 250 252 254 257 259 261 263 265 269 274 277 279 281 281 279 278 276 274 272 272 273 274 276 277 277 277 276
240 235 232 231 232 233 235 236 237 238 240 241 243 245 248 250 252 254 256 259 261 263 265 268 271 274 277 279 280 280 279 277 275 274 273 272 272 274 276 278 278 277
245 239 233 226 224 226 230 233 236 238 239 241 243 245 247 250 252 254 255 258 260 262 265 266 268 271 273 275 277 278 278 277 276 275 274 273 273 272 273 275 278 279
251 246 241 233 227 226 227 229 233 236 238 240 242 244 246 248 251 253 255 256 258 261 263 265 267 268 270 272 273 274 275 276 276 276 275 275 274 274 274 275 277 279
254 251 247 242 237 233 232 232 234 235 237 239 241 242 244 246 249 252 255 257 258 260 262 264 266 267 268 270 271 272 274 275 275 277 278 277 276 276 276 276 277 278